LX2ZZ-13 Weather Reports


time (UTC)temp
C
wind
direction
speed
KPH
gust
KPH
rain 1hr
cm
rain 24hr
cm
rain mn
cm
humidity
%
barometer
mb
20260502231603 12 0.0 3.2 0.00 0.43 0.00 74 1014.4
20260502230600 12 0.0 0.0 0.00 0.43 0.00 73 1014.5
20260502225557 13 0.0 3.2 0.00 0.43 0.00 70 1014.5
20260502224554 13 0.0 0.0 0.00 0.43 0.00 66 1014.5
20260502223551 14 0.0 0.0 0.00 0.43 0.00 63 1014.6
20260502222547 15 0.0 3.2 0.00 0.43 0.00 58 1014.6
20260502221604 17 338 0.0 3.2 0.00 0.43 0.00 50 1014.5
20260502220541 18 282 1.6 6.4 0.00 0.43 0.00 43 1014.6
20260502215538 18 179 0.0 6.4 0.00 0.43 0.43 42 1014.6
20260502214535 18 207 3.2 11.3 0.00 0.43 0.43 41 1014.6
20260502213552 18 227 3.2 6.4 0.00 0.43 0.43 41 1014.4
20260502212529 19 197 1.6 6.4 0.00 0.43 0.43 41 1014.5
20260502211526 19 222 1.6 6.4 0.00 0.43 0.43 41 1014.6
20260502210523 20 221 1.6 9.7 0.00 0.43 0.43 40 1014.7
20260502205539 19 221 3.2 12.9 0.00 0.43 0.43 40 1014.8
20260502204516 18 248 3.2 6.4 0.00 0.43 0.43 42 1014.8
20260502203613 18 113 0.0 6.4 0.00 0.43 0.43 43 1014.8
20260502202610 18 127 1.6 3.2 0.00 0.43 0.43 43 1014.7
20260502201707 17 218 1.6 6.4 0.00 0.43 0.43 45 1014.7
20260502200624 16 176 1.6 6.4 0.00 0.43 0.43 54 1014.8
20260502195601 13 304 0.0 6.4 0.00 0.43 0.43 67 1014.8
20260502194558 13 0.0 3.2 0.00 0.43 0.43 74 1014.8
20260502193555 13 23 0.0 3.2 0.00 0.43 0.43 73 1014.6
20260502192611 14 23 0.0 3.2 0.00 0.43 0.43 73 1014.6
20260502191608 15 0.0 3.2 0.00 0.43 0.43 68 1014.5
20260502190545 16 0.0 3.2 0.00 0.43 0.43 64 1014.5
20260502185542 16 0.0 3.2 0.00 0.43 0.43 63 1014.4
20260502184539 17 225 0.0 3.2 0.00 0.43 0.43 60 1014.4
20260502183556 20 0.0 0.0 0.00 0.43 0.43 45 1014.3
20260502182552 21 236 1.6 3.2 0.00 0.43 0.43 42 1014.5
20260502181529 21 0.0 3.2 0.00 0.43 0.43 40 1014.5
20260502180526 21 270 0.0 3.2 0.00 0.43 0.43 38 1014.5
20260502163619 23 210 1.6 11.3 0.00 0.43 0.43 37 1014.8
20260502162555 23 200 3.2 6.4 0.00 0.43 0.43 36 1014.9
20260502161553 23 162 3.2 9.7 0.00 0.43 0.43 37 1014.9
20260502160549 25 230 1.6 9.7 0.00 0.43 0.43 36 1015.0
20260502151534 25 178 3.2 11.3 0.00 0.43 0.43 35 1015.6
20260502150531 24 177 4.8 12.9 0.00 0.43 0.43 36 1015.9
20260502130553 23 202 1.6 6.4 0.00 0.43 0.43 49 1017.4
20260502123544 25 222 1.6 6.4 0.00 0.43 0.43 47 1017.8
20260502122541 25 146 1.6 6.4 0.00 0.43 0.43 46 1017.8
20260502121557 25 225 0.0 3.2 0.00 0.43 0.43 51 1018.0
20260502120534 25 131 1.6 6.4 0.00 0.43 0.43 48 1018.2
20260502115612 24 223 1.6 3.2 0.00 0.43 0.43 51 1018.3
20260502114528 25 224 1.6 6.4 0.00 0.43 0.43 48 1018.4
20260502113525 24 160 1.6 6.4 0.00 0.43 0.43 49 1018.7
20260502112542 23 214 1.6 6.4 0.00 0.43 0.43 50 1018.7
20260502111539 23 154 1.6 9.7 0.00 0.43 0.43 50 1018.9
20260502110516 23 113 1.6 6.4 0.00 0.43 0.43 49 1018.9
20260502105634 23 124 0.0 3.2 0.00 0.43 0.43 50 1018.9
20260502104630 22 155 1.6 6.4 0.00 0.43 0.43 51 1019.1
20260502103627 22 223 1.6 6.4 0.00 0.43 0.43 49 1019.3
20260502102604 22 113 0.0 3.2 0.00 0.43 0.43 48 1019.4
20260502101601 22 141 1.6 6.4 0.00 0.43 0.43 47 1019.6
20260502100558 21 113 0.0 6.4 0.00 0.43 0.43 50 1019.6
20260502090539 20 63 1.6 6.4 0.00 0.43 0.43 61 1019.7
20260502070602 11 0.0 0.0 0.15 0.15 0.15 88 1020.3
20260502065558 11 45 1.6 6.4 0.15 0.15 0.15 86 1020.5
20260502064556 12 355 1.6 3.2 0.13 0.13 0.13 72 1021.2
20260502063552 12 255 0.0 3.2 0.00 0.00 0.00 70 1021.2
20260502062549 12 0.0 3.2 0.00 0.00 0.00 72 1020.7
20260502061606 12 0.0 0.0 0.00 0.00 0.00 79 1020.5
20260502060544 11 0.0 3.2 0.00 0.00 0.00 77 1020.5
20260502055540 10 0.0 0.0 0.00 0.00 0.00 80 1020.7
20260502054537 10 0.0 0.0 0.00 0.00 0.00 83 1020.9
20260502053534 10 225 0.0 3.2 0.00 0.00 0.00 79 1020.9
20260502052531 10 0.0 0.0 0.00 0.00 0.00 83 1021.1
20260502051527 10 0.0 3.2 0.00 0.00 0.00 83 1021.0
20260502050524 10 0.0 0.0 0.00 0.00 0.00 84 1021.1
20260502045541 8 0.0 0.0 0.00 0.00 0.00 85 1021.2
20260502044518 7 242 0.0 3.2 0.00 0.00 0.00 84 1021.3
20260502043515 7 0.0 0.0 0.00 0.00 0.00 91 1020.9
20260502042612 6 0.0 0.0 0.00 0.00 0.00 92 1020.9
20260502041609 6 0.0 0.0 0.00 0.00 0.00 91 1020.8
20260502040606 6 0.0 0.0 0.00 0.00 0.00 91 1020.7
20260502035603 5 0.0 0.0 0.00 0.00 0.00 91 1020.5
20260502034619 5 0.0 0.0 0.00 0.00 0.00 90 1020.8
20260502033556 6 0.0 0.0 0.00 0.00 0.00 88 1020.7
20260502032553 6 0.0 0.0 0.00 0.00 0.00 87 1020.8
20260502031550 7 0.0 0.0 0.00 0.00 0.00 86 1020.8
20260502030548 6 270 0.0 3.2 0.00 0.00 0.00 88 1021.1
20260502025544 6 0.0 0.0 0.00 0.00 0.00 87 1021.1
20260502024601 7 0.0 0.0 0.00 0.00 0.00 85 1021.3
20260502023538 7 345 0.0 3.2 0.00 0.00 0.00 83 1021.4
20260502022535 5 100 3.2 9.7 0.00 0.00 0.00 94 1021.6
20260502021552 4 0.0 0.0 0.00 0.00 0.00 94 1021.0
20260502020528 4 0.0 0.0 0.00 0.00 0.00 94 1021.1
20260502015525 4 0.0 0.0 0.00 0.00 0.00 93 1021.1
20260502014522 4 0.0 0.0 0.00 0.00 0.00 93 1021.1
20260502013559 4 0.0 0.0 0.00 0.00 0.00 91 1021.2
20260502012516 5 0.0 0.0 0.00 0.00 0.00 91 1021.3
20260502011613 5 0.0 0.0 0.00 0.00 0.00 91 1021.3
20260502010610 5 0.0 0.0 0.00 0.00 0.00 90 1021.4
20260502005607 5 0.0 0.0 0.00 0.00 0.00 89 1021.4
20260502004604 5 0.0 0.0 0.00 0.00 0.00 88 1021.4
20260502003600 5 0.0 0.0 0.00 0.00 0.00 87 1021.4
20260502002527 5 0.0 0.0 0.00 0.00 0.00 88 1021.6
20260502001523 6 0.0 0.0 0.00 0.00 0.00 85 1021.6
20260502000521 7 0.0 0.0 0.00 0.00 0.00 82 1021.7
20260501235518 7 0.0 0.0 0.00 0.00 0.00 80 1021.8
20260501234615 6 0.0 3.2 0.00 0.00 0.00 85 1021.9
20260501233631 4 203 0.0 6.4 0.00 0.00 0.00 92 1021.8
20260501232608 4 0.0 0.0 0.00 0.00 0.00 91 1021.7